| time (UTC) | temp F | wind direction | speed MPH | gust MPH | rain 1hr in | rain 24hr in | rain mn in | humidity % | barometer mb |
| 20260505054337 | 61 | 346 | 7.0 | 17.0 | 0.00 | 0.00 | 0.00 | 42 | 1007.3 |
| 20260505053835 | 62 | 334 | 7.0 | 20.0 | 0.00 | 0.00 | 0.00 | 41 | 1007.1 |
| 20260505053332 | 62 | 340 | 8.0 | 18.0 | 0.00 | 0.00 | 0.00 | 42 | 1006.8 |
| 20260505052828 | 62 | 14 | 7.0 | 18.0 | 0.00 | 0.00 | 0.00 | 41 | 1006.6 |
| 20260505052325 | 63 | 346 | 14.0 | 22.0 | 0.00 | 0.00 | 0.00 | 40 | 1006.4 |
| 20260505051823 | 63 | 31 | 8.0 | 25.0 | 0.00 | 0.00 | 0.00 | 40 | 1006.5 |
| 20260505051320 | 63 | 358 | 13.0 | 17.0 | 0.00 | 0.00 | 0.00 | 40 | 1006.4 |
| 20260505050818 | 64 | 337 | 9.0 | 15.0 | 0.00 | 0.00 | 0.00 | 40 | 1005.8 |
| 20260505050317 | 64 | 4 | 11.0 | 20.0 | 0.00 | 0.00 | 0.00 | 39 | 1006.0 |
| 20260505041746 | 68 | 359 | 9.0 | 10.0 | 0.00 | 0.00 | 0.00 | 39 | 1005.6 |
| 20260505041243 | 68 | 2 | 7.0 | 14.0 | 0.00 | 0.00 | 0.00 | 39 | 1005.0 |
| 20260505040741 | 68 | 347 | 6.0 | 16.0 | 0.00 | 0.00 | 0.00 | 39 | 1005.1 |
| 20260505040238 | 68 | 24 | 5.0 | 9.0 | 0.00 | 0.00 | 0.00 | 40 | 1005.2 |
| 20260505035735 | 69 | 317 | 5.0 | 9.0 | 0.00 | 0.00 | 0.00 | 41 | 1005.3 |
| 20260505035230 | 69 | 333 | 6.0 | 8.0 | 0.00 | 0.00 | 0.00 | 41 | 1005.3 |
| 20260505034728 | 69 | 339 | 8.0 | 15.0 | 0.00 | 0.00 | 0.00 | 39 | 1005.4 |
| 20260505034224 | 69 | 352 | 5.0 | 6.0 | 0.00 | 0.00 | 0.00 | 41 | 1005.2 |
| 20260505033721 | 70 | 358 | 7.0 | 9.0 | 0.00 | 0.00 | 0.00 | 40 | 1005.3 |
| 20260505033219 | 70 | 28 | 6.0 | 11.0 | 0.00 | 0.00 | 0.00 | 40 | 1005.0 |
| 20260505032717 | 71 | 2 | 7.0 | 11.0 | 0.00 | 0.00 | 0.00 | 41 | 1004.8 |
| 20260505032212 | 71 | 324 | 10.0 | 14.0 | 0.00 | 0.00 | 0.00 | 41 | 1004.8 |
| 20260505031710 | 70 | 344 | 4.0 | 7.0 | 0.00 | 0.00 | 0.00 | 48 | 1004.5 |
| 20260505031206 | 71 | 288 | 2.0 | 7.0 | 0.00 | 0.00 | 0.00 | 48 | 1004.6 |
| 20260505030703 | 71 | 301 | 4.0 | 9.0 | 0.00 | 0.00 | 0.00 | 48 | 1004.3 |
| 20260505030159 | 70 | 349 | 7.0 | 9.0 | 0.00 | 0.00 | 0.00 | 50 | 1004.1 |
| 20260505025655 | 70 | 9 | 4.0 | 6.0 | 0.00 | 0.00 | 0.00 | 56 | 1004.0 |
| 20260505025154 | 69 | 308 | 6.0 | 7.0 | 0.00 | 0.00 | 0.00 | 60 | 1003.8 |
| 20260505024651 | 67 | 332 | 6.0 | 7.0 | 0.00 | 0.00 | 0.00 | 65 | 1003.9 |
| 20260505024148 | 63 | 264 | 2.0 | 6.0 | 0.00 | 0.00 | 0.00 | 77 | 1003.7 |
| 20260505023646 | 63 | 312 | 3.0 | 3.0 | 0.00 | 0.00 | 0.00 | 81 | 1003.3 |
| 20260505023143 | 64 | 264 | 0.0 | 0.0 | 0.00 | 0.00 | 0.00 | 79 | 1003.1 |
| 20260505022640 | 64 | 277 | 0.0 | 0.0 | 0.00 | 0.00 | 0.00 | 78 | 1003.1 |
| 20260505022137 | 65 | 248 | 0.0 | 0.0 | 0.00 | 0.00 | 0.00 | 77 | 1002.8 |
| 20260505021634 | 65 | 284 | 0.0 | 0.0 | 0.00 | 0.00 | 0.00 | 77 | 1003.0 |
| 20260505021130 | 65 | 276 | 0.0 | 0.0 | 0.00 | 0.00 | 0.00 | 79 | 1002.9 |
| 20260505020626 | 65 | 250 | 0.0 | 0.0 | 0.00 | 0.00 | 0.00 | 78 | 1002.9 |
| 20260505020122 | 65 | 249 | 0.0 | 0.0 | 0.00 | 0.00 | 0.00 | 80 | 1002.9 |
| 20260505015619 | 66 | 259 | 0.0 | 0.0 | 0.00 | 0.00 | 0.00 | 75 | 1002.6 |
| 20260505015116 | 66 | 279 | 0.0 | 0.0 | 0.00 | 0.00 | 0.00 | 77 | 1002.6 |
| 20260505014613 | 66 | 306 | 0.0 | 0.0 | 0.00 | 0.00 | 0.00 | 76 | 1002.6 |
| 20260505014110 | 68 | 301 | 0.0 | 0.0 | 0.00 | 0.00 | 0.00 | 72 | 1002.4 |
| 20260505013607 | 69 | 250 | 0.0 | 0.0 | 0.00 | 0.00 | 0.00 | 66 | 1002.3 |
| 20260505013104 | 68 | 247 | 0.0 | 0.0 | 0.00 | 0.00 | 0.00 | 70 | 1002.3 |
| 20260505012602 | 69 | 247 | 0.0 | 0.0 | 0.00 | 0.00 | 0.00 | 72 | 1001.9 |
| 20260505012059 | 70 | 258 | 0.0 | 0.0 | 0.00 | 0.00 | 0.00 | 67 | 1002.1 |
| 20260505011554 | 71 | 259 | 0.0 | 0.0 | 0.00 | 0.00 | 0.00 | 61 | 1002.2 |
| 20260505011052 | 73 | 259 | 0.0 | 1.0 | 0.00 | 0.00 | 0.00 | 59 | 1002.1 |
| 20260505010547 | 74 | 247 | 0.0 | 1.0 | 0.00 | 0.00 | 0.00 | 56 | 1001.9 |
| 20260505010044 | 74 | 254 | 0.0 | 0.0 | 0.00 | 0.00 | 0.00 | 55 | 1002.0 |
| 20260505005540 | 75 | 250 | 0.0 | 1.0 | 0.00 | 0.00 | 0.00 | 54 | 1002.0 |
| 20260505005038 | 76 | 239 | 0.0 | 0.0 | 0.00 | 0.00 | 0.00 | 53 | 1002.0 |
| 20260505004535 | 76 | 239 | 0.0 | 0.0 | 0.00 | 0.00 | 0.00 | 52 | 1002.0 |
| 20260505004032 | 77 | 239 | 0.0 | 0.0 | 0.00 | 0.00 | 0.00 | 51 | 1002.1 |
| 20260505003529 | 77 | 239 | 0.0 | 2.0 | 0.00 | 0.00 | 0.00 | 51 | 1001.9 |
| 20260505003026 | 77 | 228 | 1.0 | 2.0 | 0.00 | 0.00 | 0.00 | 51 | 1001.8 |
| 20260505002521 | 78 | 233 | 0.0 | 1.0 | 0.00 | 0.00 | 0.00 | 49 | 1002.1 |
| 20260505002020 | 78 | 184 | 2.0 | 2.0 | 0.00 | 0.00 | 0.00 | 48 | 1001.9 |
| 20260505001517 | 78 | 245 | 1.0 | 1.0 | 0.00 | 0.00 | 0.00 | 48 | 1002.0 |
| 20260505001014 | 78 | 165 | 2.0 | 2.0 | 0.00 | 0.00 | 0.00 | 48 | 1001.9 |
| 20260505000512 | 78 | 166 | 2.0 | 3.0 | 0.00 | 0.00 | 0.00 | 47 | 1001.9 |
| 20260505000009 | 78 | 118 | 3.0 | 3.0 | 0.00 | 0.00 | 0.00 | 47 | 1002.0 |
| 20260504235506 | 79 | 187 | 3.0 | 3.0 | 0.00 | 0.00 | 0.00 | 45 | 1002.2 |
| 20260504235002 | 79 | 163 | 3.0 | 5.0 | 0.00 | 0.00 | 0.00 | 45 | 1002.0 |
| 20260504234459 | 79 | 181 | 3.0 | 5.0 | 0.00 | 0.00 | 0.00 | 44 | 1001.6 |
| 20260504233956 | 79 | 154 | 4.0 | 5.0 | 0.00 | 0.00 | 0.00 | 43 | 1001.9 |
| 20260504233451 | 79 | 181 | 4.0 | 7.0 | 0.00 | 0.00 | 0.00 | 43 | 1001.8 |
| 20260504232949 | 79 | 218 | 1.0 | 6.0 | 0.00 | 0.00 | 0.00 | 45 | 1001.8 |
| 20260504232446 | 80 | 135 | 7.0 | 8.0 | 0.00 | 0.00 | 0.00 | 44 | 1002.1 |
| 20260504231943 | 80 | 166 | 4.0 | 6.0 | 0.00 | 0.00 | 0.00 | 45 | 1001.9 |
| 20260504231439 | 80 | 164 | 3.0 | 3.0 | 0.00 | 0.00 | 0.00 | 44 | 1001.8 |
| 20260504230935 | 80 | 177 | 3.0 | 5.0 | 0.00 | 0.00 | 0.00 | 43 | 1002.0 |
| 20260504230432 | 80 | 174 | 3.0 | 5.0 | 0.00 | 0.00 | 0.00 | 42 | 1001.9 |
| 20260504225932 | 80 | 130 | 3.0 | 3.0 | 0.00 | 0.00 | 0.00 | 42 | 1001.8 |
| 20260504225428 | 80 | 170 | 4.0 | 6.0 | 0.00 | 0.00 | 0.00 | 43 | 1001.9 |
| 20260504224925 | 81 | 137 | 3.0 | 5.0 | 0.00 | 0.00 | 0.00 | 41 | 1001.7 |
| 20260504224421 | 81 | 143 | 4.0 | 7.0 | 0.00 | 0.00 | 0.00 | 40 | 1001.8 |
| 20260504223919 | 81 | 170 | 4.0 | 5.0 | 0.00 | 0.00 | 0.00 | 41 | 1001.8 |
| 20260504223414 | 81 | 164 | 6.0 | 8.0 | 0.00 | 0.00 | 0.00 | 40 | 1001.9 |
| 20260504222910 | 82 | 185 | 7.0 | 8.0 | 0.00 | 0.00 | 0.00 | 39 | 1001.6 |
| 20260504222407 | 82 | 146 | 7.0 | 9.0 | 0.00 | 0.00 | 0.00 | 38 | 1001.7 |
| 20260504221906 | 82 | 181 | 7.0 | 9.0 | 0.00 | 0.00 | 0.00 | 39 | 1001.9 |
| 20260504221402 | 83 | 161 | 5.0 | 8.0 | 0.00 | 0.00 | 0.00 | 38 | 1001.8 |
| 20260504220859 | 83 | 182 | 5.0 | 8.0 | 0.00 | 0.00 | 0.00 | 39 | 1001.9 |
| 20260504220356 | 83 | 162 | 5.0 | 10.0 | 0.00 | 0.00 | 0.00 | 41 | 1001.9 |
| 20260504215853 | 83 | 121 | 5.0 | 11.0 | 0.00 | 0.00 | 0.00 | 41 | 1001.9 |
| 20260504215349 | 83 | 134 | 6.0 | 8.0 | 0.00 | 0.00 | 0.00 | 39 | 1002.0 |
| 20260504214846 | 82 | 139 | 3.0 | 7.0 | 0.00 | 0.00 | 0.00 | 41 | 1002.2 |
| 20260504214343 | 82 | 170 | 3.0 | 8.0 | 0.00 | 0.00 | 0.00 | 41 | 1002.1 |
| 20260504213840 | 81 | 169 | 6.0 | 8.0 | 0.00 | 0.00 | 0.00 | 42 | 1002.1 |
| 20260504213335 | 82 | 154 | 8.0 | 9.0 | 0.00 | 0.00 | 0.00 | 42 | 1002.3 |
| 20260504212833 | 81 | 241 | 3.0 | 7.0 | 0.00 | 0.00 | 0.00 | 42 | 1002.0 |
| 20260504212329 | 81 | 161 | 5.0 | 7.0 | 0.00 | 0.00 | 0.00 | 42 | 1002.1 |
| 20260504211827 | 81 | 168 | 4.0 | 7.0 | 0.00 | 0.00 | 0.00 | 43 | 1002.2 |
| 20260504211322 | 81 | 132 | 6.0 | 7.0 | 0.00 | 0.00 | 0.00 | 41 | 1002.2 |
| 20260504210820 | 81 | 166 | 3.0 | 6.0 | 0.00 | 0.00 | 0.00 | 43 | 1002.4 |
| 20260504210317 | 81 | 181 | 5.0 | 8.0 | 0.00 | 0.00 | 0.00 | 41 | 1002.3 |
| 20260504205814 | 81 | 158 | 5.0 | 8.0 | 0.00 | 0.00 | 0.00 | 43 | 1002.2 |
| 20260504205312 | 81 | 140 | 4.0 | 6.0 | 0.00 | 0.00 | 0.00 | 40 | 1002.3 |
| 20260504204810 | 82 | 171 | 8.0 | 9.0 | 0.00 | 0.00 | 0.00 | 39 | 1002.5 |
| 20260504204308 | 82 | 188 | 4.0 | 8.0 | 0.00 | 0.00 | 0.00 | 41 | 1002.5 |
| 20260504203807 | 82 | 204 | 4.0 | 6.0 | 0.00 | 0.00 | 0.00 | 40 | 1002.4 |
| 20260504203304 | 82 | 218 | 5.0 | 6.0 | 0.00 | 0.00 | 0.00 | 41 | 1002.6 |
| 20260504202758 | 82 | 152 | 5.0 | 8.0 | 0.00 | 0.00 | 0.00 | 39 | 1002.4 |
| 20260504202256 | 82 | 205 | 3.0 | 5.0 | 0.00 | 0.00 | 0.00 | 43 | 1002.7 |
| 20260504201753 | 82 | 229 | 2.0 | 3.0 | 0.00 | 0.00 | 0.00 | 42 | 1002.8 |
| 20260504201250 | 82 | 202 | 3.0 | 7.0 | 0.00 | 0.00 | 0.00 | 42 | 1002.5 |
| 20260504200748 | 82 | 195 | 9.0 | 10.0 | 0.00 | 0.00 | 0.00 | 40 | 1002.8 |
| 20260504200243 | 82 | 200 | 6.0 | 11.0 | 0.00 | 0.00 | 0.00 | 41 | 1002.6 |
| 20260504195740 | 82 | 141 | 7.0 | 9.0 | 0.00 | 0.00 | 0.00 | 40 | 1002.8 |
| 20260504195236 | 82 | 176 | 7.0 | 10.0 | 0.00 | 0.00 | 0.00 | 38 | 1002.8 |
| 20260504194733 | 82 | 144 | 4.0 | 5.0 | 0.00 | 0.00 | 0.00 | 39 | 1002.9 |
| 20260504194229 | 82 | 257 | 6.0 | 7.0 | 0.00 | 0.00 | 0.00 | 39 | 1002.7 |
| 20260504193726 | 83 | 110 | 8.0 | 9.0 | 0.00 | 0.00 | 0.00 | 39 | 1002.8 |
| 20260504193223 | 83 | 223 | 2.0 | 6.0 | 0.00 | 0.00 | 0.00 | 39 | 1002.8 |
| 20260504192722 | 82 | 167 | 5.0 | 8.0 | 0.00 | 0.00 | 0.00 | 40 | 1002.8 |
| 20260504192219 | 82 | 255 | 3.0 | 6.0 | 0.00 | 0.00 | 0.00 | 35 | 1002.8 |
| 20260504191718 | 82 | 230 | 5.0 | 7.0 | 0.00 | 0.00 | 0.00 | 36 | 1002.9 |
| 20260504191214 | 82 | 251 | 6.0 | 8.0 | 0.00 | 0.00 | 0.00 | 38 | 1002.8 |
| 20260504190709 | 82 | 124 | 5.0 | 8.0 | 0.00 | 0.00 | 0.00 | 38 | 1002.8 |
| 20260504190206 | 83 | 158 | 2.0 | 5.0 | 0.00 | 0.00 | 0.00 | 41 | 1002.8 |
| 20260504185703 | 82 | 236 | 2.0 | 5.0 | 0.00 | 0.00 | 0.00 | 42 | 1002.8 |
| 20260504185159 | 82 | 165 | 3.0 | 7.0 | 0.00 | 0.00 | 0.00 | 42 | 1002.7 |
| 20260504184655 | 81 | 208 | 3.0 | 8.0 | 0.00 | 0.00 | 0.00 | 38 | 1003.0 |
| 20260504184151 | 82 | 154 | 6.0 | 7.0 | 0.00 | 0.00 | 0.00 | 40 | 1002.9 |
| 20260504183648 | 81 | 158 | 4.0 | 7.0 | 0.00 | 0.00 | 0.00 | 42 | 1002.8 |
| 20260504183145 | 81 | 116 | 3.0 | 8.0 | 0.00 | 0.00 | 0.00 | 45 | 1002.7 |
| 20260504182643 | 81 | 136 | 7.0 | 9.0 | 0.00 | 0.00 | 0.00 | 42 | 1002.8 |
| 20260504182140 | 81 | 218 | 4.0 | 7.0 | 0.00 | 0.00 | 0.00 | 41 | 1003.1 |
| 20260504181637 | 80 | 234 | 5.0 | 6.0 | 0.00 | 0.00 | 0.00 | 43 | 1003.0 |
| 20260504181135 | 80 | 133 | 7.0 | 8.0 | 0.00 | 0.00 | 0.00 | 42 | 1002.9 |
| 20260504180634 | 80 | 187 | 5.0 | 7.0 | 0.00 | 0.00 | 0.00 | 44 | 1003.1 |
| 20260504180132 | 79 | 160 | 4.0 | 8.0 | 0.00 | 0.00 | 0.00 | 42 | 1003.1 |
| 20260504175629 | 79 | 161 | 5.0 | 10.0 | 0.00 | 0.00 | 0.00 | 42 | 1003.1 |
| 20260504175125 | 79 | 180 | 4.0 | 5.0 | 0.00 | 0.00 | 0.00 | 43 | 1003.2 |
| 20260504174624 | 79 | 171 | 7.0 | 8.0 | 0.00 | 0.00 | 0.00 | 41 | 1003.3 |
| 20260504174120 | 79 | 215 | 8.0 | 10.0 | 0.00 | 0.00 | 0.00 | 41 | 1003.2 |
| 20260504173617 | 78 | 215 | 3.0 | 9.0 | 0.00 | 0.00 | 0.00 | 43 | 1003.3 |
| 20260504173115 | 78 | 204 | 5.0 | 8.0 | 0.00 | 0.00 | 0.00 | 43 | 1003.3 |
| 20260504172611 | 78 | 195 | 5.0 | 9.0 | 0.00 | 0.00 | 0.00 | 43 | 1003.3 |
| 20260504172108 | 78 | 202 | 1.0 | 8.0 | 0.00 | 0.00 | 0.00 | 46 | 1003.4 |
| 20260504171604 | 78 | 168 | 6.0 | 11.0 | 0.00 | 0.00 | 0.00 | 45 | 1003.4 |
| 20260504171101 | 78 | 219 | 3.0 | 7.0 | 0.00 | 0.00 | 0.00 | 46 | 1003.3 |
| 20260504170557 | 77 | 175 | 4.0 | 9.0 | 0.00 | 0.00 | 0.00 | 49 | 1003.5 |
| 20260504150941 | 72 | 222 | 7.0 | 8.0 | 0.00 | 0.00 | 0.00 | 51 | 1003.5 |
| 20260504150438 | 72 | 216 | 2.0 | 7.0 | 0.00 | 0.00 | 0.00 | 53 | 1003.5 |
| 20260504140904 | 68 | 229 | 8.0 | 10.0 | 0.00 | 0.00 | 0.00 | 56 | 1003.8 |
| 20260504140400 | 68 | 183 | 7.0 | 9.0 | 0.00 | 0.00 | 0.00 | 57 | 1004.0 |
| 20260504130325 | 64 | 150 | 0.0 | 6.0 | 0.00 | 0.00 | 0.00 | 62 | 1003.6 |
| 20260504120248 | 59 | 171 | 2.0 | 5.0 | 0.00 | 0.00 | 0.00 | 68 | 1003.7 |
| 20260504110716 | 58 | 152 | 3.0 | 7.0 | 0.00 | 0.00 | 0.00 | 70 | 1003.6 |
| 20260504110212 | 57 | 143 | 5.0 | 6.0 | 0.00 | 0.00 | 0.00 | 70 | 1003.6 |
| 20260504100131 | 52 | 254 | 0.0 | 0.0 | 0.00 | 0.00 | 0.00 | 87 | 1004.4 |
| 20260504081524 | 58 | 247 | 0.0 | 1.0 | 0.00 | 0.00 | 0.00 | 70 | 1005.1 |
| 20260504081019 | 60 | 265 | 0.0 | 0.0 | 0.00 | 0.00 | 0.00 | 64 | 1005.4 |
| 20260504080516 | 60 | 257 | 0.0 | 0.0 | 0.00 | 0.00 | 0.00 | 62 | 1005.3 |